Total_Precipitation_Accumulation
1.79 1.77 1.69 1.65 1.63 1.74 1.90 2.03 2.09 2.40 2.53 2.20 1.82 1.71 1.68 1.74 1.67 1.68 1.62 1.58 1.50 1.61 1.96 2.19 2.05 1.83 1.56 1.34 1.19 1.08 0.95 0.85 0.76 0.66 0.68 0.76 0.76 0.71 0.63 0.57 0.51 0.44 0.39
1.91 2.00 1.89 1.85 1.73 1.72 1.88 2.05 2.22 2.64 2.64 2.45 2.02 1.86 1.78 1.73 1.59 1.53 1.62 1.83 1.67 1.56 1.66 1.92 2.12 2.10 1.96 1.72 1.45 1.25 1.10 1.03 0.90 0.68 0.58 0.64 0.68 0.66 0.65 0.64 0.58 0.48 0.40
1.89 1.89 1.73 1.66 1.71 1.84 1.98 2.02 2.20 2.47 2.19 2.16 1.93 1.85 1.67 1.50 1.34 1.30 1.47 1.66 1.56 1.53 1.64 1.75 1.90 1.98 2.07 2.10 1.94 1.73 1.42 1.22 1.05 0.82 0.65 0.60 0.64 0.61 0.58 0.60 0.59 0.52 0.42
1.79 1.91 1.72 1.60 1.90 2.01 2.08 2.23 2.32 2.31 2.22 2.18 1.97 1.73 1.55 1.45 1.19 1.10 1.12 1.20 1.34 1.22 1.47 1.68 1.72 1.76 1.96 2.20 2.37 2.39 2.05 1.66 1.37 1.13 0.90 0.77 0.77 0.71 0.59 0.55 0.57 0.49 0.37
1.86 2.10 2.00 2.05 2.23 2.28 2.25 2.16 2.37 2.34 2.22 2.18 1.98 1.70 1.41 1.26 1.08 0.95 0.89 0.85 0.95 1.03 1.10 1.28 1.43 1.50 1.85 2.34 2.61 2.73 2.63 2.24 1.74 1.47 1.34 1.18 1.10 0.91 0.69 0.59 0.58 0.54 0.42
1.97 2.26 2.07 2.03 2.19 2.28 2.25 2.20 2.16 2.17 1.98 1.97 1.87 1.57 1.26 0.98 0.90 0.78 0.66 0.66 0.70 0.68 0.80 0.98 1.21 1.12 1.44 1.94 2.26 2.57 2.82 2.66 2.15 1.84 1.73 1.62 1.52 1.27 0.88 0.69 0.65 0.62 0.56
1.88 2.15 2.01 2.07 2.08 2.04 2.05 2.10 2.09 1.92 1.61 1.82 1.84 1.42 1.03 0.84 0.79 0.59 0.54 0.56 0.55 0.57 0.70 0.90 1.08 1.09 1.06 1.21 1.50 1.85 2.31 2.52 2.32 2.02 1.90 1.80 1.83 1.68 1.20 0.91 0.80 0.68 0.68
1.94 1.96 1.98 1.94 1.96 1.98 1.90 1.86 1.91 1.73 1.45 1.59 1.67 1.59 1.07 0.83 0.68 0.52 0.57 0.64 0.68 0.73 0.75 0.81 0.95 1.07 1.09 1.30 1.21 1.19 1.60 2.13 2.44 2.38 2.12 1.79 1.66 1.60 1.40 1.25 1.08 0.91 0.88
2.08 2.04 1.95 1.83 1.68 1.60 1.55 1.58 1.65 1.62 1.45 1.42 1.60 1.77 1.39 1.00 0.88 0.68 0.66 0.68 0.78 0.88 0.83 0.85 0.90 1.04 1.14 1.36 1.47 1.34 1.23 1.48 2.04 2.56 2.55 2.09 1.64 1.44 1.40 1.39 1.36 1.21 1.10
1.86 1.66 1.51 1.50 1.46 1.41 1.33 1.24 1.32 1.35 1.27 1.21 1.32 1.44 1.51 1.48 1.37 0.90 0.64 0.61 0.72 0.83 0.90 0.84 0.78 0.87 1.04 1.23 1.45 1.48 1.18 1.08 1.34 2.02 2.42 2.31 1.94 1.55 1.40 1.43 1.67 1.64 1.32
1.48 1.23 1.15 1.17 1.15 1.13 1.08 1.03 1.03 1.01 1.02 1.03 1.15 1.30 1.39 1.44 1.44 1.30 0.93 0.86 0.86 0.79 0.82 0.82 0.84 0.85 0.90 1.10 1.35 1.30 1.28 1.18 1.13 1.27 1.60 1.87 1.96 1.79 1.66 1.81 2.13 2.25 1.99
1.08 0.89 0.81 0.85 0.91 0.97 0.94 0.90 0.90 0.88 0.93 1.03 1.05 1.14 1.28 1.26 1.25 1.34 1.13 1.02 0.97 0.85 0.83 0.87 0.87 0.94 0.94 1.03 1.06 1.25 1.24 1.04 0.96 0.96 1.06 1.28 1.50 1.59 1.64 1.85 2.26 2.60 2.67
0.83 0.76 0.71 0.74 0.79 0.86 0.81 0.78 0.77 0.85 0.97 1.05 1.02 1.07 1.18 1.21 1.24 1.34 1.30 1.19 1.12 1.05 1.07 1.06 0.90 0.81 0.73 0.83 0.91 0.97 0.89 0.78 0.72 0.70 0.74 0.83 0.96 1.17 1.40 1.64 1.97 2.32 2.57
0.81 0.82 0.75 0.71 0.69 0.70 0.69 0.73 0.72 0.77 0.89 0.98 0.93 1.05 1.15 1.20 1.34 1.47 1.50 1.47 1.32 1.20 1.17 1.12 0.97 0.83 0.78 0.80 0.78 0.76 0.71 0.64 0.53 0.51 0.53 0.55 0.63 0.77 0.99 1.18 1.43 1.71 1.94
0.79 0.86 0.81 0.76 0.73 0.74 0.76 0.83 0.87 0.95 1.08 1.13 1.17 1.27 1.29 1.25 1.29 1.37 1.43 1.48 1.52 1.35 1.18 1.10 1.00 0.87 0.87 0.90 0.83 0.75 0.80 0.64 0.46 0.41 0.40 0.40 0.47 0.58 0.64 0.71 0.86 1.06 1.26
0.72 0.83 0.85 0.80 0.76 0.72 0.76 0.86 1.04 1.20 1.30 1.33 1.35 1.42 1.45 1.39 1.39 1.45 1.44 1.49 1.58 1.49 1.26 1.07 1.01 0.93 0.93 0.83 0.83 0.78 0.73 0.63 0.51 0.43 0.38 0.35 0.36 0.40 0.41 0.44 0.53 0.65 0.81
0.66 0.69 0.72 0.74 0.72 0.71 0.73 0.81 0.92 1.11 1.23 1.25 1.25 1.30 1.31 1.30 1.28 1.26 1.33 1.44 1.57 1.56 1.34 1.14 1.16 1.18 1.14 1.03 0.96 0.88 0.75 0.67 0.55 0.47 0.40 0.37 0.34 0.33 0.34 0.37 0.41 0.46 0.55
0.63 0.63 0.64 0.62 0.60 0.61 0.67 0.75 0.85 0.96 1.04 1.06 1.05 1.06 1.01 1.00 1.03 1.02 1.09 1.17 1.26 1.44 1.42 1.29 1.35 1.39 1.37 1.27 1.21 1.13 0.94 0.73 0.61 0.55 0.46 0.43 0.39 0.36 0.34 0.35 0.38 0.44 0.50
0.60 0.59 0.58 0.57 0.61 0.70 0.78 0.83 0.85 0.86 0.87 0.90 0.98 1.04 0.95 0.90 0.90 0.92 0.96 0.94 0.99 1.16 1.28 1.31 1.36 1.45 1.46 1.45 1.32 1.17 1.10 0.97 0.75 0.65 0.57 0.51 0.46 0.42 0.38 0.37 0.38 0.44 0.49
0.54 0.57 0.61 0.64 0.70 0.75 0.81 0.85 0.86 0.83 0.76 0.71 0.76 0.82 0.83 0.80 0.78 0.84 0.87 0.89 0.92 1.05 1.18 1.26 1.34 1.50 1.52 1.46 1.41 1.26 1.23 1.13 1.01 0.85 0.73 0.61 0.59 0.55 0.48 0.43 0.39 0.40 0.48
0.53 0.59 0.65 0.69 0.70 0.68 0.65 0.62 0.63 0.64 0.62 0.58 0.54 0.55 0.60 0.65 0.67 0.69 0.71 0.83 0.91 0.96 1.01 1.06 1.13 1.32 1.55 1.60 1.41 1.31 1.36 1.35 1.22 1.04 0.93 0.74 0.64 0.58 0.54 0.50 0.46 0.42 0.44
0.57 0.61 0.64 0.69 0.70 0.57 0.60 0.52 0.45 0.46 0.50 0.51 0.54 0.54 0.52 0.51 0.52 0.52 0.53 0.60 0.73 0.82 0.86 0.93 1.00 1.16 1.38 1.56 1.61 1.56 1.48 1.40 1.36 1.25 1.14 1.06 0.89 0.79 0.71 0.60 0.50 0.46 0.44
0.65 0.65 0.64 0.64 0.64 0.65 0.65 0.55 0.41 0.37 0.40 0.44 0.48 0.51 0.45 0.42 0.47 0.48 0.50 0.49 0.50 0.58 0.69 0.82 0.89 0.94 1.10 1.32 1.53 1.51 1.57 1.59 1.58 1.56 1.54 1.50 1.26 1.07 0.90 0.76 0.61 0.47 0.43
0.82 0.79 0.74 0.70 0.74 0.71 0.65 0.52 0.43 0.37 0.38 0.41 0.45 0.49 0.48 0.42 0.41 0.48 0.53 0.51 0.46 0.46 0.50 0.58 0.68 0.84 1.04 1.27 1.54 1.54 1.53 1.61 1.67 1.70 1.73 1.74 1.56 1.38 1.17 1.01 0.82 0.62 0.50
0.97 0.88 0.82 0.81 0.79 0.80 0.75 0.59 0.52 0.47 0.48 0.48 0.50 0.50 0.49 0.46 0.46 0.44 0.49 0.53 0.54 0.52 0.50 0.52 0.57 0.75 0.98 1.10 1.32 1.45 1.42 1.43 1.35 1.30 1.42 1.60 1.62 1.57 1.44 1.22 0.99 0.79 0.62
1.12 1.10 1.05 1.03 1.02 1.07 1.11 0.90 0.78 0.70 0.69 0.68 0.72 0.68 0.58 0.51 0.51 0.49 0.50 0.56 0.56 0.56 0.62 0.60 0.57 0.61 0.73 0.91 1.06 1.19 1.29 1.32 1.20 1.08 0.93 1.04 1.23 1.42 1.55 1.42 1.21 1.01 0.86